Winston-Salem, NC

6:34 AM EDT on March 30, 2017 (GMT -0400)
Smith Reynolds

Weather History for KINT - October, 2012

Change the Weather History Date:

Monday, October 8, 2012

  Actual Average Record
Temperature  
Mean Temperature 46 °F -  
Max Temperature 48 °F 70 °F 89 °F (2007)
Min Temperature 44 °F 51 °F 31 °F (1988)
Degree Days  
Heating Degree Days 19    
Moisture  
Dew Point 43 °F    
Average Humidity 89    
Maximum Humidity 96    
Minimum Humidity 80    
Precipitation  
Precipitation 0.01 in - - ()
Sea Level Pressure  
Sea Level Pressure 30.20 in    
Wind  
Wind Speed 7 mph (NNE)    
Max Wind Speed 12 mph    
Max Gust Speed 17 mph    
Visibility 7 miles    
Events Rain    
Averages and records for this station are not official NWS values.
T = Trace of Precipitation, MM = Missing Value Source: NWS Daily Summary

Daily Weather History Graph

Daily Weather History Graph

Search for Another Location

Airport or City:

Trip Planner

Search our weather history database for the weather conditions in past years. The results will help you decide how hot, cold, wet, or windy it might be!

Date:

Astronomy

Oct. 08, 2012 Rise Set
Actual Time 7:22 AM EDT 6:53 PM EDT
Civil Twilight 6:56 AM EDT 7:19 PM EDT
Nautical Twilight 6:26 AM EDT 7:49 PM EDT
Astronomical Twilight 5:56 AM EDT 8:18 PM EDT
Moon 12:12 AM EDT (10/8) 2:31 PM EDT (10/8)
Length of Visible Light 12h 23m
Length of Day
11h 31m
Waning Gibbous, 46% of the Moon is Illuminated
Oct 8
Waning Gibbous
Oct 15
New
Oct 21
First Quarter
Oct 29
Full
Nov 6
Last Quarter

Hourly Weather History & Observations

Time (EDT) Temp. Windchill Dew Point Humidity Pressure Visibility Wind Dir Wind Speed Gust Speed Precip Events Conditions
12:54 AM 48.0 °F - 46.0 °F 93% 30.16 in 10.0 mi NNE 6.9 mph - N/A   Overcast
1:54 AM 48.0 °F - 43.0 °F 83% 30.17 in 10.0 mi NE 4.6 mph - N/A   Overcast
2:54 AM 46.9 °F - 42.1 °F 83% 30.17 in 10.0 mi NNE 4.6 mph - N/A   Overcast
3:54 AM 46.9 °F - 42.1 °F 83% 30.17 in 10.0 mi NNE 5.8 mph - N/A   Overcast
4:54 AM 46.9 °F - 42.1 °F 83% 30.17 in 10.0 mi NNE 6.9 mph - N/A   Mostly Cloudy
5:54 AM 46.9 °F - 42.1 °F 83% 30.19 in 10.0 mi NNE 4.6 mph - N/A   Overcast
6:54 AM 46.9 °F - 41.0 °F 80% 30.21 in 10.0 mi NNE 6.9 mph - N/A   Overcast
7:54 AM 46.9 °F - 42.1 °F 83% 30.20 in 10.0 mi NE 6.9 mph - 0.00 in Rain Light Rain
8:54 AM 46.9 °F - 43.0 °F 86% 30.22 in 10.0 mi ENE 6.9 mph - 0.00 in   Overcast
9:38 AM 46.4 °F 42.4 °F 44.6 °F 93% 30.22 in 10.0 mi NE 8.1 mph - N/A   Overcast
9:54 AM 46.9 °F - 44.1 °F 90% 30.22 in 10.0 mi ENE 6.9 mph - N/A   Overcast
10:15 AM 46.4 °F 43.5 °F 44.6 °F 93% 30.23 in 10.0 mi ENE 5.8 mph - N/A   Overcast
10:25 AM 48.2 °F - 44.6 °F 87% 30.23 in 10.0 mi ENE 9.2 mph 17.3 mph N/A   Overcast
10:51 AM 48.2 °F - 44.6 °F 87% 30.23 in 10.0 mi ENE 10.4 mph 17.3 mph N/A   Overcast
10:54 AM 48.0 °F - 44.1 °F 86% 30.24 in 10.0 mi ENE 6.9 mph 17.3 mph N/A   Overcast
11:54 AM 46.9 °F - 43.0 °F 86% 30.25 in 8.0 mi NE 9.2 mph - 0.01 in Rain Light Rain
12:54 PM 46.9 °F - 42.1 °F 83% 30.25 in 10.0 mi NE 8.1 mph - 0.00 in   Overcast
1:01 PM 46.4 °F 42.4 °F 42.8 °F 87% 30.24 in 10.0 mi NNE 8.1 mph - N/A   Overcast
1:11 PM 46.4 °F 41.1 °F 44.6 °F 93% 30.23 in 10.0 mi NNE 11.5 mph - N/A   Overcast
1:54 PM 46.0 °F 41.9 °F 43.0 °F 89% 30.22 in 4.0 mi NE 8.1 mph - N/A   Overcast
2:54 PM 46.0 °F 42.5 °F 43.0 °F 89% 30.19 in 3.0 mi NE 6.9 mph 17.3 mph N/A   Overcast
3:14 PM 44.6 °F 40.2 °F 42.8 °F 93% 30.18 in 2.5 mi NNE 8.1 mph - N/A   Overcast
3:32 PM 44.6 °F 39.2 °F 42.8 °F 93% 30.18 in 3.0 mi NNE 10.4 mph - N/A   Overcast
3:43 PM 44.6 °F 39.7 °F 42.8 °F 93% 30.18 in 2.5 mi NNE 9.2 mph - N/A   Overcast
3:54 PM 45.0 °F 39.7 °F 43.0 °F 93% 30.19 in 3.0 mi NNE 10.4 mph 16.1 mph N/A   Overcast
4:54 PM 46.0 °F 43.1 °F 41.0 °F 83% 30.17 in 10.0 mi North 5.8 mph - N/A   Overcast
5:05 PM 46.4 °F 41.5 °F 42.8 °F 87% 30.17 in 10.0 mi NNE 10.4 mph 17.3 mph N/A   Overcast
5:46 PM 46.4 °F 44.3 °F 42.8 °F 87% 30.18 in 10.0 mi North 4.6 mph - N/A   Overcast
5:54 PM 46.0 °F 42.5 °F 42.1 °F 86% 30.17 in 10.0 mi NNE 6.9 mph - N/A   Overcast
6:54 PM 45.0 °F 41.8 °F 43.0 °F 93% 30.18 in 5.0 mi North 5.8 mph - N/A   Overcast
7:07 PM 44.6 °F 40.7 °F 42.8 °F 93% 30.18 in 4.0 mi North 6.9 mph - N/A   Overcast
7:54 PM 45.0 °F 41.2 °F 43.0 °F 93% 30.19 in 4.0 mi North 6.9 mph - N/A   Overcast
8:54 PM 44.1 °F 39.0 °F 42.1 °F 93% 30.19 in 4.0 mi NNE 9.2 mph - N/A   Overcast
9:05 PM 44.6 °F 40.2 °F 42.8 °F 93% 30.18 in 3.0 mi NNE 8.1 mph - N/A   Overcast
9:20 PM 44.6 °F 40.2 °F 42.8 °F 93% 30.18 in 3.0 mi NNE 8.1 mph - N/A   Overcast
9:54 PM 44.1 °F 40.1 °F 43.0 °F 96% 30.20 in 5.0 mi NNE 6.9 mph - N/A   Overcast
10:54 PM 45.0 °F 41.2 °F 43.0 °F 93% 30.20 in 4.0 mi NNE 6.9 mph - N/A   Overcast
11:54 PM 45.0 °F 40.6 °F 43.0 °F 93% 30.19 in 3.0 mi NE 8.1 mph - N/A   Overcast